Simultaneous Nadir Overpasses (SNOs) Predictions

Prediction of SNOs between NOAA-19 and TERRA Satellite Orbit:

Table of predicted SNOs for the next 14.0 days since TLE Epoch: 7/9/2022
Index Date (NOAA-19) Time (NOAA-19) Lat,Lon (NOAA-19) SZA (NOAA-19 ) Date (TERRA) Time (TERRA) Lat,Lon (TERRA) SZA (TERRA ) Distance(km) Time Diff (sec)
1 07/11/2022 08:13:53 -80.81, -87.54 119.59 07/11/2022 08:14:02 -80.82, -87.38 119.56 3.04 9
2 07/13/2022 13:46:51 80.82, 8.96 60.70 07/13/2022 13:47:41 80.80, 8.93 60.70 2.12 50
3 07/13/2022 14:37:47 -80.80, 176.77 119.25 07/13/2022 14:37:07 -80.82, 176.84 119.25 2.33 40
4 07/15/2022 20:10:43 80.81, -86.61 61.08 07/15/2022 20:10:44 80.82, -86.58 61.09 1.55 1
5 07/18/2022 01:43:37 -80.82, 9.74 118.59 07/18/2022 01:44:23 -80.82, 9.90 118.56 3.00 46
6 07/18/2022 02:34:37 80.81, 177.40 61.45 07/18/2022 02:33:49 80.81, 177.53 61.45 2.33 48
7 07/20/2022 08:07:31 -80.82, -86.06 118.17 07/20/2022 08:07:28 -80.80, -86.02 118.18 1.80 3
8 07/22/2022 13:40:25 80.82, 10.86 62.28 07/22/2022 13:41:05 80.82, 10.70 62.28 2.70 40



Historial Predications of SNOs between NOAA-19 and TERRA
